| time (UTC) | temp F | wind direction | speed knots | gust knots | rain 1hr in | rain 24hr in | rain mn in | humidity % | barometer mb |
| 20260904074014 | 73 | 161 | 0.0 | 0.0 | 0.00 | 0.00 | 0.00 | 95 | 1009.4 |
| 20260904073510 | 73 | 161 | 0.0 | 0.0 | 0.00 | 0.00 | 0.00 | 95 | 1009.5 |
| 20260904073006 | 73 | 161 | 0.0 | 0.0 | 0.00 | 0.00 | 0.00 | 94 | 1009.6 |
| 20260904072502 | 73 | 161 | 0.0 | 0.0 | 0.00 | 0.00 | 0.00 | 94 | 1009.6 |
| 20260904072001 | 73 | 161 | 0.0 | 0.0 | 0.00 | 0.00 | 0.00 | 94 | 1009.5 |
| 20260904071457 | 73 | 161 | 0.0 | 0.0 | 0.00 | 0.00 | 0.00 | 94 | 1009.4 |
| 20260904070952 | 73 | 161 | 0.0 | 0.0 | 0.00 | 0.00 | 0.00 | 94 | 1009.9 |
| 20260904070450 | 73 | 160 | 0.0 | 0.0 | 0.00 | 0.00 | 0.00 | 94 | 1009.7 |
| 20260904065945 | 73 | 160 | 0.0 | 0.0 | 0.00 | 0.00 | 0.00 | 93 | 1009.3 |
| 20260904065441 | 74 | 160 | 0.0 | 0.0 | 0.00 | 0.00 | 0.00 | 93 | 1009.8 |
| 20260904064936 | 74 | 161 | 0.0 | 0.0 | 0.00 | 0.00 | 0.00 | 93 | 1009.8 |
| 20260904064432 | 74 | 160 | 0.0 | 0.0 | 0.00 | 0.00 | 0.00 | 93 | 1009.8 |
| 20260904063927 | 74 | 160 | 0.0 | 0.0 | 0.00 | 0.00 | 0.00 | 93 | 1009.6 |
| 20260904063424 | 74 | 160 | 0.0 | 0.0 | 0.00 | 0.00 | 0.00 | 93 | 1009.7 |
| 20260904062918 | 74 | 160 | 0.0 | 0.0 | 0.00 | 0.00 | 0.00 | 93 | 1009.9 |
| 20260904062414 | 74 | 161 | 0.0 | 0.0 | 0.00 | 0.00 | 0.00 | 92 | 1009.8 |
| 20260904061910 | 74 | 161 | 0.0 | 0.0 | 0.00 | 0.00 | 0.00 | 92 | 1009.7 |
| 20260904061406 | 74 | 161 | 0.0 | 0.0 | 0.00 | 0.00 | 0.00 | 92 | 1009.6 |
| 20260904060902 | 74 | 160 | 0.0 | 0.0 | 0.00 | 0.00 | 0.00 | 92 | 1009.7 |
| 20260904060358 | 75 | 160 | 0.0 | 0.0 | 0.00 | 0.00 | 0.00 | 92 | 1009.6 |
| 20260904055853 | 74 | 160 | 0.0 | 0.0 | 0.00 | 0.00 | 0.00 | 92 | 1009.7 |
| 20260904055348 | 75 | 160 | 0.0 | 0.0 | 0.00 | 0.00 | 0.00 | 92 | 1009.6 |
| 20260904054844 | 75 | 160 | 0.0 | 0.0 | 0.00 | 0.00 | 0.00 | 91 | 1009.6 |
| 20260904054340 | 75 | 161 | 0.0 | 0.0 | 0.00 | 0.00 | 0.00 | 91 | 1009.7 |
| 20260904053835 | 75 | 161 | 0.0 | 0.0 | 0.00 | 0.00 | 0.00 | 91 | 1009.5 |
| 20260904053334 | 75 | 160 | 0.0 | 0.0 | 0.00 | 0.00 | 0.00 | 91 | 1009.5 |
| 20260904052830 | 75 | 160 | 0.0 | 0.0 | 0.00 | 0.00 | 0.00 | 90 | 1009.7 |
| 20260904052327 | 75 | 160 | 0.0 | 0.0 | 0.00 | 0.00 | 0.00 | 90 | 1009.4 |
| 20260904051823 | 75 | 160 | 0.0 | 0.0 | 0.00 | 0.00 | 0.00 | 90 | 1009.6 |
| 20260904051318 | 76 | 160 | 0.0 | 0.0 | 0.00 | 0.00 | 0.00 | 89 | 1009.7 |
| 20260904050813 | 76 | 160 | 0.0 | 0.0 | 0.00 | 0.00 | 0.00 | 89 | 1009.6 |
| 20260904050311 | 76 | 160 | 0.0 | 0.0 | 0.00 | 0.00 | 0.00 | 89 | 1009.5 |
| 20260904045810 | 76 | 159 | 0.0 | 0.0 | 0.00 | 0.01 | 0.01 | 88 | 1009.6 |
| 20260904045307 | 76 | 159 | 0.0 | 0.0 | 0.00 | 0.01 | 0.01 | 88 | 1009.6 |
| 20260904044759 | 76 | 165 | 0.0 | 0.0 | 0.00 | 0.01 | 0.01 | 88 | 1009.5 |
| 20260904044257 | 76 | 155 | 0.0 | 0.0 | 0.00 | 0.01 | 0.01 | 88 | 1009.5 |
| 20260904043752 | 76 | 154 | 0.0 | 0.0 | 0.00 | 0.01 | 0.01 | 88 | 1009.4 |
| 20260904043248 | 76 | 157 | 0.0 | 0.0 | 0.00 | 0.01 | 0.01 | 88 | 1009.4 |
| 20260904042743 | 76 | 157 | 0.0 | 0.0 | 0.00 | 0.01 | 0.01 | 87 | 1009.4 |
| 20260904042240 | 77 | 156 | 0.0 | 0.0 | 0.00 | 0.01 | 0.01 | 87 | 1009.2 |
| 20260904041739 | 77 | 161 | 0.0 | 0.0 | 0.00 | 0.01 | 0.01 | 86 | 1009.4 |
| 20260904041235 | 77 | 161 | 0.0 | 0.0 | 0.00 | 0.01 | 0.01 | 86 | 1009.2 |
| 20260904040731 | 77 | 165 | 0.0 | 0.0 | 0.00 | 0.01 | 0.01 | 86 | 1009.3 |
| 20260904040226 | 77 | 165 | 0.0 | 0.0 | 0.00 | 0.01 | 0.01 | 85 | 1009.2 |
| 20260904035722 | 77 | 167 | 0.0 | 1.7 | 0.00 | 0.01 | 0.01 | 85 | 1009.0 |
| 20260904035217 | 77 | 157 | 0.0 | 0.0 | 0.00 | 0.01 | 0.01 | 84 | 1009.4 |
| 20260904034716 | 78 | 160 | 0.0 | 0.0 | 0.00 | 0.01 | 0.01 | 84 | 1009.5 |
| 20260904034212 | 78 | 162 | 0.0 | 0.0 | 0.00 | 0.01 | 0.01 | 83 | 1009.4 |
| 20260904033708 | 78 | 162 | 0.0 | 0.0 | 0.00 | 0.01 | 0.01 | 83 | 1009.4 |
| 20260904033205 | 78 | 156 | 0.0 | 0.0 | 0.00 | 0.01 | 0.01 | 82 | 1009.5 |
| 20260904032701 | 78 | 161 | 0.0 | 0.0 | 0.00 | 0.01 | 0.01 | 82 | 1009.4 |
| 20260904032159 | 79 | 154 | 0.0 | 0.0 | 0.00 | 0.01 | 0.01 | 81 | 1009.4 |
| 20260904031700 | 79 | 167 | 0.0 | 0.0 | 0.00 | 0.01 | 0.01 | 81 | 1009.4 |
| 20260904031155 | 78 | 161 | 0.0 | 0.0 | 0.00 | 0.01 | 0.01 | 81 | 1009.5 |
| 20260904030651 | 79 | 162 | 0.0 | 0.0 | 0.00 | 0.01 | 0.01 | 81 | 1009.6 |
| 20260904030146 | 79 | 157 | 0.0 | 0.0 | 0.00 | 0.01 | 0.01 | 81 | 1009.5 |
| 20260904025642 | 79 | 137 | 0.0 | 1.7 | 0.00 | 0.01 | 0.01 | 81 | 1009.6 |
| 20260904025136 | 79 | 166 | 0.0 | 0.0 | 0.00 | 0.01 | 0.01 | 80 | 1009.6 |
| 20260904024632 | 79 | 149 | 0.0 | 0.0 | 0.00 | 0.01 | 0.01 | 80 | 1009.5 |
| 20260904024127 | 79 | 167 | 0.0 | 0.0 | 0.00 | 0.01 | 0.01 | 79 | 1009.5 |
| 20260904023623 | 79 | 165 | 0.0 | 0.0 | 0.00 | 0.01 | 0.01 | 79 | 1009.5 |
| 20260904023119 | 79 | 166 | 0.0 | 0.0 | 0.00 | 0.01 | 0.01 | 79 | 1009.5 |
| 20260904022614 | 79 | 173 | 0.9 | 1.7 | 0.00 | 0.01 | 0.01 | 79 | 1009.3 |
| 20260904022110 | 79 | 167 | 0.0 | 0.0 | 0.00 | 0.01 | 0.01 | 79 | 1009.4 |
| 20260904021605 | 80 | 167 | 0.0 | 0.0 | 0.00 | 0.01 | 0.01 | 78 | 1009.5 |
| 20260904021100 | 80 | 164 | 0.0 | 0.0 | 0.00 | 0.01 | 0.01 | 78 | 1009.4 |
| 20260904020555 | 80 | 164 | 0.0 | 0.0 | 0.00 | 0.01 | 0.01 | 78 | 1009.3 |
| 20260904020045 | 80 | 164 | 0.0 | 0.0 | 0.00 | 0.01 | 0.01 | 77 | 1009.5 |
| 20260904015540 | 80 | 155 | 0.0 | 0.0 | 0.00 | 0.01 | 0.01 | 76 | 1009.4 |
| 20260904015038 | 80 | 158 | 0.0 | 0.0 | 0.00 | 0.01 | 0.01 | 76 | 1009.2 |
| 20260904014532 | 80 | 166 | 0.0 | 1.7 | 0.00 | 0.01 | 0.01 | 76 | 1009.3 |
| 20260904014028 | 81 | 174 | 0.0 | 0.0 | 0.00 | 0.01 | 0.01 | 75 | 1009.3 |
| 20260904013524 | 81 | 169 | 0.0 | 0.0 | 0.00 | 0.01 | 0.01 | 75 | 1008.8 |
| 20260904013021 | 81 | 39 | 0.9 | 1.7 | 0.00 | 0.01 | 0.01 | 75 | 1009.2 |
| 20260904012520 | 81 | 167 | 0.0 | 0.0 | 0.00 | 0.01 | 0.01 | 74 | 1008.8 |
| 20260904012015 | 82 | 173 | 0.0 | 0.0 | 0.00 | 0.01 | 0.01 | 73 | 1008.8 |
| 20260904011509 | 82 | 170 | 0.0 | 0.0 | 0.00 | 0.01 | 0.01 | 73 | 1008.9 |
| 20260904011004 | 82 | 166 | 0.0 | 0.0 | 0.00 | 0.01 | 0.01 | 72 | 1008.7 |
| 20260904010501 | 83 | 164 | 0.0 | 0.0 | 0.00 | 0.01 | 0.01 | 71 | 1008.7 |
| 20260904010000 | 83 | 152 | 1.7 | 1.7 | 0.00 | 0.01 | 0.01 | 71 | 1008.6 |
| 20260904005456 | 83 | 173 | 0.0 | 0.0 | 0.00 | 0.01 | 0.01 | 71 | 1008.7 |
| 20260904004951 | 83 | 176 | 0.9 | 1.7 | 0.00 | 0.01 | 0.01 | 71 | 1008.6 |
| 20260904004447 | 83 | 163 | 0.0 | 0.0 | 0.00 | 0.01 | 0.01 | 70 | 1008.5 |
| 20260904003947 | 84 | 168 | 0.0 | 1.7 | 0.00 | 0.01 | 0.01 | 69 | 1008.7 |
| 20260904003443 | 84 | 168 | 0.0 | 1.7 | 0.00 | 0.01 | 0.01 | 69 | 1008.6 |
| 20260904002938 | 84 | 175 | 0.0 | 1.7 | 0.00 | 0.01 | 0.01 | 69 | 1008.6 |
| 20260904002435 | 84 | 113 | 0.0 | 1.7 | 0.00 | 0.01 | 0.01 | 68 | 1008.7 |
| 20260904001933 | 84 | 173 | 1.7 | 2.6 | 0.00 | 0.01 | 0.01 | 68 | 1008.9 |
| 20260904001429 | 84 | 166 | 0.0 | 0.0 | 0.00 | 0.01 | 0.01 | 68 | 1008.7 |
| 20260904000923 | 85 | 222 | 2.6 | 4.3 | 0.00 | 0.01 | 0.01 | 67 | 1008.9 |
| 20260904000425 | 85 | 171 | 1.7 | 2.6 | 0.00 | 0.01 | 0.01 | 66 | 1008.7 |
| 20260903235919 | 85 | 140 | 2.6 | 4.3 | 0.00 | 0.01 | 0.01 | 65 | 1008.8 |
| 20260903235415 | 85 | 322 | 1.7 | 2.6 | 0.00 | 0.01 | 0.01 | 65 | 1008.6 |
| 20260903234914 | 85 | 145 | 0.9 | 1.7 | 0.00 | 0.01 | 0.01 | 65 | 1008.8 |
| 20260903234410 | 86 | 173 | 0.9 | 1.7 | 0.00 | 0.01 | 0.01 | 64 | 1008.7 |
| 20260903233906 | 86 | 169 | 1.7 | 2.6 | 0.00 | 0.01 | 0.01 | 64 | 1008.7 |
| 20260903233402 | 86 | 97 | 0.0 | 1.7 | 0.00 | 0.01 | 0.01 | 64 | 1008.7 |
| 20260903232901 | 86 | 146 | 1.7 | 2.6 | 0.00 | 0.01 | 0.01 | 64 | 1008.7 |
| 20260903232356 | 86 | 169 | 0.9 | 1.7 | 0.00 | 0.01 | 0.01 | 63 | 1008.4 |
| 20260903231856 | 86 | 126 | 1.7 | 2.6 | 0.00 | 0.01 | 0.01 | 62 | 1008.4 |
| 20260903231351 | 86 | 179 | 0.9 | 1.7 | 0.00 | 0.01 | 0.01 | 62 | 1008.4 |
| 20260903230846 | 87 | 190 | 0.0 | 1.7 | 0.00 | 0.01 | 0.01 | 62 | 1008.1 |
| 20260903230341 | 87 | 192 | 5.2 | 7.8 | 0.00 | 0.01 | 0.01 | 61 | 1007.9 |
| 20260903225838 | 87 | 147 | 1.7 | 2.6 | 0.00 | 0.01 | 0.01 | 61 | 1008.0 |
| 20260903225333 | 87 | 176 | 0.0 | 1.7 | 0.00 | 0.01 | 0.01 | 60 | 1008.1 |
| 20260903224830 | 87 | 203 | 0.9 | 2.6 | 0.00 | 0.01 | 0.01 | 60 | 1008.1 |
| 20260903224325 | 88 | 84 | 4.3 | 7.8 | 0.00 | 0.01 | 0.01 | 59 | 1008.0 |
| 20260903223821 | 88 | 152 | 1.7 | 2.6 | 0.00 | 0.01 | 0.01 | 59 | 1008.0 |
| 20260903223314 | 88 | 168 | 1.7 | 1.7 | 0.00 | 0.01 | 0.01 | 59 | 1008.0 |
| 20260903222809 | 88 | 159 | 3.5 | 6.1 | 0.00 | 0.01 | 0.01 | 58 | 1008.1 |
| 20260903222308 | 89 | 198 | 1.7 | 2.6 | 0.00 | 0.01 | 0.01 | 58 | 1008.3 |
| 20260903221803 | 89 | 233 | 1.7 | 2.6 | 0.00 | 0.01 | 0.01 | 57 | 1008.2 |
| 20260903221301 | 88 | 192 | 3.5 | 4.3 | 0.00 | 0.01 | 0.01 | 58 | 1008.2 |
| 20260903220800 | 87 | 165 | 1.7 | 2.6 | 0.00 | 0.01 | 0.01 | 59 | 1008.2 |
| 20260903220254 | 89 | 79 | 3.5 | 4.3 | 0.00 | 0.01 | 0.01 | 58 | 1008.1 |
| 20260903215747 | 88 | 158 | 1.7 | 2.6 | 0.00 | 0.01 | 0.01 | 58 | 1008.4 |
| 20260903215244 | 88 | 197 | 3.5 | 4.3 | 0.00 | 0.01 | 0.01 | 58 | 1008.3 |
| 20260903214741 | 88 | 147 | 4.3 | 4.3 | 0.00 | 0.01 | 0.01 | 58 | 1008.2 |
| 20260903214239 | 88 | 174 | 2.6 | 2.6 | 0.00 | 0.01 | 0.01 | 59 | 1008.3 |
| 20260903213732 | 88 | 189 | 3.5 | 4.3 | 0.00 | 0.01 | 0.01 | 58 | 1008.2 |
| 20260903213228 | 88 | 181 | 3.5 | 4.3 | 0.00 | 0.01 | 0.01 | 58 | 1008.5 |
| 20260903212724 | 88 | 191 | 3.5 | 4.3 | 0.00 | 0.01 | 0.01 | 60 | 1008.6 |
| 20260903212220 | 87 | 182 | 1.7 | 1.7 | 0.00 | 0.01 | 0.01 | 60 | 1008.7 |
| 20260903211718 | 87 | 167 | 0.9 | 1.7 | 0.00 | 0.01 | 0.01 | 62 | 1008.6 |
| 20260903211215 | 85 | 164 | 1.7 | 2.6 | 0.07 | 0.01 | 0.01 | 65 | 1008.6 |
| 20260903210711 | 85 | 174 | 0.0 | 1.7 | 0.07 | 0.01 | 0.01 | 67 | 1008.4 |
| 20260903210207 | 84 | 159 | 2.6 | 6.1 | 0.00 | 0.00 | 0.00 | 65 | 1008.3 |
| 20260903205701 | 86 | 180 | 5.2 | 8.7 | 0.00 | 0.00 | 0.00 | 62 | 1008.2 |
| 20260903205200 | 86 | 170 | 2.6 | 6.1 | 0.00 | 0.00 | 0.00 | 59 | 1008.8 |
| 20260903204656 | 86 | 179 | 1.7 | 1.7 | 0.00 | 0.00 | 0.00 | 59 | 1009.2 |
| 20260903204152 | 87 | 180 | 3.5 | 6.1 | 0.00 | 0.00 | 0.00 | 58 | 1008.9 |
| 20260903203647 | 87 | 184 | 1.7 | 2.6 | 0.00 | 0.00 | 0.00 | 57 | 1008.9 |
| 20260903203142 | 88 | 179 | 1.7 | 1.7 | 0.00 | 0.00 | 0.00 | 56 | 1008.8 |
| 20260903202637 | 90 | 187 | 0.9 | 1.7 | 0.00 | 0.00 | 0.00 | 53 | 1009.0 |
| 20260903202133 | 90 | 69 | 3.5 | 6.1 | 0.00 | 0.00 | 0.00 | 53 | 1009.0 |
| 20260903201632 | 90 | 181 | 0.9 | 1.7 | 0.00 | 0.00 | 0.00 | 54 | 1008.8 |
| 20260903201131 | 90 | 165 | 1.7 | 2.6 | 0.00 | 0.00 | 0.00 | 54 | 1009.0 |
| 20260903200626 | 90 | 181 | 0.9 | 1.7 | 0.00 | 0.00 | 0.00 | 55 | 1009.0 |
| 20260903200121 | 90 | 195 | 1.7 | 1.7 | 0.00 | 0.00 | 0.00 | 55 | 1009.3 |
| 20260903195617 | 90 | 154 | 1.7 | 1.7 | 0.00 | 0.00 | 0.00 | 60 | 1008.9 |
| 20260903195113 | 89 | 82 | 6.1 | 10.4 | 0.00 | 0.00 | 0.00 | 61 | 1009.0 |
| 20260903194609 | 90 | 221 | 1.7 | 2.6 | 0.00 | 0.00 | 0.00 | 61 | 1009.2 |
| 20260903194108 | 90 | 207 | 2.6 | 2.6 | 0.00 | 0.00 | 0.00 | 62 | 1009.6 |
| 20260903193605 | 89 | 193 | 1.7 | 1.7 | 0.00 | 0.00 | 0.00 | 64 | 1009.5 |
| 20260903193100 | 87 | 69 | 2.6 | 2.6 | 0.00 | 0.00 | 0.00 | 65 | 1009.6 |
| 20260903192557 | 86 | 182 | 1.7 | 2.6 | 0.00 | 0.00 | 0.00 | 68 | 1009.6 |
| 20260903192057 | 85 | 109 | 0.9 | 1.7 | 0.00 | 0.00 | 0.00 | 71 | 1009.6 |
| 20260903191553 | 86 | 188 | 0.9 | 1.7 | 0.00 | 0.00 | 0.00 | 69 | 1009.3 |
| 20260903191048 | 86 | 188 | 0.9 | 1.7 | 0.00 | 0.00 | 0.00 | 69 | 1009.2 |
| 20260903190547 | 84 | 136 | 1.7 | 1.7 | 0.00 | 0.00 | 0.00 | 72 | 1009.5 |
| 20260903190047 | 84 | 83 | 2.6 | 2.6 | 0.00 | 0.00 | 0.00 | 73 | 1010.0 |
| 20260903185542 | 82 | 155 | 0.0 | 0.0 | 0.00 | 0.00 | 0.00 | 77 | 1010.1 |
| 20260903185038 | 80 | 120 | 1.7 | 2.6 | 0.00 | 0.00 | 0.00 | 79 | 1010.2 |
| 20260903184534 | 79 | 168 | 0.9 | 1.7 | 0.00 | 0.00 | 0.00 | 79 | 1010.2 |
| 20260903184029 | 80 | 149 | 0.0 | 0.0 | 0.00 | 0.00 | 0.00 | 79 | 1010.1 |
| 20260903183528 | 80 | 163 | 0.0 | 0.0 | 0.00 | 0.00 | 0.00 | 78 | 1010.3 |
| 20260903183023 | 80 | 151 | 0.0 | 1.7 | 0.00 | 0.00 | 0.00 | 77 | 1010.1 |
| 20260903182522 | 80 | 150 | 0.0 | 0.0 | 0.00 | 0.00 | 0.00 | 77 | 1010.2 |
| 20260903182019 | 80 | 148 | 0.0 | 0.0 | 0.00 | 0.00 | 0.00 | 76 | 1010.3 |
| 20260903181517 | 80 | 163 | 0.9 | 1.7 | 0.00 | 0.00 | 0.00 | 74 | 1010.3 |
| 20260903181017 | 80 | 168 | 0.0 | 0.0 | 0.00 | 0.00 | 0.00 | 74 | 1010.2 |
| 20260903180513 | 80 | 160 | 0.0 | 0.0 | 0.00 | 0.00 | 0.00 | 73 | 1010.1 |
| 20260903180012 | 80 | 206 | 0.0 | 1.7 | 0.00 | 0.00 | 0.00 | 73 | 1010.2 |
| 20260903175511 | 80 | 179 | 0.0 | 0.0 | 0.00 | 0.00 | 0.00 | 72 | 1010.4 |
| 20260903175010 | 80 | 166 | 0.0 | 1.7 | 0.00 | 0.00 | 0.00 | 73 | 1010.1 |
| 20260903174505 | 81 | 181 | 0.0 | 1.7 | 0.00 | 0.00 | 0.00 | 72 | 1010.2 |
| 20260903174000 | 81 | 166 | 0.0 | 0.0 | 0.00 | 0.00 | 0.00 | 70 | 1010.1 |
| 20260903173455 | 82 | 164 | 0.0 | 1.7 | 0.00 | 0.00 | 0.00 | 68 | 1010.2 |
| 20260903172951 | 83 | 81 | 1.7 | 2.6 | 0.00 | 0.00 | 0.00 | 67 | 1010.2 |
| 20260903172446 | 84 | 148 | 2.6 | 2.6 | 0.00 | 0.00 | 0.00 | 65 | 1010.5 |
| 20260903171941 | 85 | 177 | 1.7 | 1.7 | 0.00 | 0.00 | 0.00 | 65 | 1010.4 |
| 20260903171436 | 85 | 135 | 0.9 | 1.7 | 0.00 | 0.00 | 0.00 | 64 | 1010.5 |
| 20260903170936 | 84 | 214 | 2.6 | 4.3 | 0.00 | 0.00 | 0.00 | 67 | 1010.6 |
| 20260903170431 | 83 | 163 | 1.7 | 2.6 | 0.00 | 0.00 | 0.00 | 68 | 1010.8 |
| 20260903165930 | 82 | 156 | 0.0 | 1.7 | 0.00 | 0.00 | 0.00 | 69 | 1010.9 |
| 20260903165424 | 82 | 171 | 0.0 | 0.0 | 0.00 | 0.00 | 0.00 | 68 | 1010.9 |
| 20260903164918 | 83 | 180 | 1.7 | 1.7 | 0.00 | 0.00 | 0.00 | 66 | 1010.9 |
| 20260903164414 | 85 | 151 | 3.5 | 6.1 | 0.00 | 0.00 | 0.00 | 63 | 1010.8 |
| 20260903163913 | 86 | 175 | 0.0 | 0.0 | 0.00 | 0.00 | 0.00 | 63 | 1010.8 |
| 20260903163409 | 85 | 168 | 1.7 | 1.7 | 0.00 | 0.00 | 0.00 | 61 | 1010.8 |
| 20260903162905 | 85 | 158 | 3.5 | 6.1 | 0.00 | 0.00 | 0.00 | 62 | 1010.9 |
| 20260903162402 | 82 | 178 | 0.0 | 0.0 | 0.00 | 0.00 | 0.00 | 68 | 1010.8 |
| 20260903161857 | 80 | 148 | 1.7 | 2.6 | 0.00 | 0.00 | 0.00 | 68 | 1010.9 |
| 20260903161352 | 80 | 176 | 0.9 | 1.7 | 0.00 | 0.00 | 0.00 | 69 | 1010.7 |
| 20260903160848 | 81 | 104 | 0.9 | 1.7 | 0.00 | 0.00 | 0.00 | 68 | 1010.7 |
| 20260903160347 | 82 | 145 | 0.0 | 0.0 | 0.00 | 0.00 | 0.00 | 66 | 1010.8 |
| 20260903155845 | 83 | 164 | 0.9 | 1.7 | 0.00 | 0.00 | 0.00 | 64 | 1010.9 |
| 20260903155341 | 84 | 129 | 0.0 | 0.0 | 0.00 | 0.00 | 0.00 | 64 | 1010.7 |
| 20260903154837 | 84 | 160 | 0.0 | 1.7 | 0.00 | 0.00 | 0.00 | 64 | 1010.7 |
| 20260903154333 | 84 | 166 | 0.0 | 0.0 | 0.00 | 0.00 | 0.00 | 64 | 1010.6 |
| 20260903153833 | 82 | 119 | 1.7 | 2.6 | 0.00 | 0.00 | 0.00 | 65 | 1010.7 |
| 20260903153329 | 81 | 182 | 1.7 | 2.6 | 0.00 | 0.00 | 0.00 | 68 | 1010.7 |
| 20260903152825 | 81 | 165 | 2.6 | 2.6 | 0.00 | 0.00 | 0.00 | 67 | 1010.9 |
| 20260903152320 | 82 | 174 | 0.0 | 1.7 | 0.00 | 0.00 | 0.00 | 68 | 1010.9 |
| 20260903151815 | 83 | 176 | 1.7 | 1.7 | 0.00 | 0.00 | 0.00 | 65 | 1011.0 |
| 20260903151311 | 83 | 157 | 1.7 | 1.7 | 0.00 | 0.00 | 0.00 | 66 | 1010.8 |
| 20260903150812 | 82 | 205 | 1.7 | 2.6 | 0.00 | 0.00 | 0.00 | 66 | 1010.5 |
| 20260903150311 | 82 | 186 | 1.7 | 1.7 | 0.00 | 0.00 | 0.00 | 67 | 1010.6 |
| 20260903145806 | 82 | 171 | 0.0 | 0.0 | 0.00 | 0.00 | 0.00 | 67 | 1010.6 |
| 20260903145305 | 81 | 138 | 0.9 | 1.7 | 0.00 | 0.00 | 0.00 | 68 | 1010.5 |
| 20260903144800 | 81 | 139 | 1.7 | 1.7 | 0.00 | 0.00 | 0.00 | 68 | 1010.6 |
| 20260903144256 | 80 | 157 | 1.7 | 1.7 | 0.00 | 0.00 | 0.00 | 70 | 1010.6 |
| 20260903143752 | 79 | 124 | 0.0 | 0.0 | 0.00 | 0.00 | 0.00 | 72 | 1010.7 |
| 20260903143248 | 78 | 161 | 0.0 | 0.0 | 0.00 | 0.00 | 0.00 | 73 | 1010.7 |
| 20260903142743 | 78 | 149 | 1.7 | 1.7 | 0.00 | 0.00 | 0.00 | 72 | 1010.8 |
| 20260903142239 | 78 | 136 | 0.0 | 1.7 | 0.00 | 0.00 | 0.00 | 74 | 1010.6 |
| 20260903141735 | 78 | 165 | 1.7 | 1.7 | 0.00 | 0.00 | 0.00 | 74 | 1010.7 |
| 20260903141230 | 77 | 190 | 1.7 | 1.7 | 0.00 | 0.00 | 0.00 | 75 | 1010.8 |
| 20260903140725 | 77 | 167 | 0.0 | 0.0 | 0.00 | 0.00 | 0.00 | 77 | 1010.8 |
| 20260903140220 | 76 | 194 | 0.9 | 1.7 | 0.00 | 0.00 | 0.00 | 77 | 1010.8 |
| 20260903135716 | 76 | 171 | 0.0 | 0.0 | 0.00 | 0.00 | 0.00 | 78 | 1010.7 |
| 20260903135212 | 76 | 183 | 0.0 | 1.7 | 0.00 | 0.00 | 0.00 | 78 | 1010.9 |
| 20260903134710 | 76 | 167 | 0.0 | 1.7 | 0.00 | 0.00 | 0.00 | 79 | 1010.9 |
| 20260903134206 | 75 | 166 | 0.0 | 0.0 | 0.00 | 0.00 | 0.00 | 81 | 1010.9 |
| 20260903133704 | 75 | 159 | 0.0 | 0.0 | 0.00 | 0.00 | 0.00 | 81 | 1011.0 |
| 20260903133200 | 75 | 167 | 0.0 | 0.0 | 0.00 | 0.00 | 0.00 | 82 | 1011.0 |
| 20260903132700 | 75 | 152 | 0.9 | 1.7 | 0.00 | 0.00 | 0.00 | 83 | 1011.2 |
| 20260903132200 | 75 | 174 | 0.0 | 1.7 | 0.00 | 0.00 | 0.00 | 83 | 1010.9 |
| 20260903131655 | 75 | 167 | 0.0 | 0.0 | 0.00 | 0.00 | 0.00 | 84 | 1010.8 |
| 20260903131155 | 75 | 162 | 0.0 | 0.0 | 0.00 | 0.00 | 0.00 | 84 | 1010.8 |
| 20260903130650 | 74 | 173 | 0.9 | 1.7 | 0.00 | 0.00 | 0.00 | 84 | 1010.7 |
| 20260903130149 | 74 | 142 | 1.7 | 1.7 | 0.00 | 0.00 | 0.00 | 85 | 1010.7 |
| 20260903125648 | 75 | 169 | 0.0 | 1.7 | 0.00 | 0.00 | 0.00 | 85 | 1010.9 |
| 20260903125143 | 75 | 160 | 0.0 | 0.0 | 0.00 | 0.00 | 0.00 | 85 | 1010.7 |
| 20260903124638 | 74 | 193 | 2.6 | 2.6 | 0.00 | 0.00 | 0.00 | 85 | 1010.6 |
| 20260903124137 | 74 | 161 | 0.0 | 0.0 | 0.00 | 0.00 | 0.00 | 84 | 1010.3 |
| 20260903123631 | 74 | 160 | 0.0 | 0.0 | 0.00 | 0.00 | 0.00 | 85 | 1010.1 |
| 20260903123131 | 74 | 148 | 0.0 | 0.0 | 0.00 | 0.00 | 0.00 | 85 | 1010.0 |
| 20260903122630 | 74 | 156 | 0.0 | 0.0 | 0.00 | 0.00 | 0.00 | 85 | 1010.2 |
| 20260903122130 | 74 | 149 | 0.0 | 0.0 | 0.00 | 0.00 | 0.00 | 85 | 1010.2 |
| 20260903121629 | 74 | 149 | 0.0 | 0.0 | 0.00 | 0.00 | 0.00 | 85 | 1010.2 |
| 20260903121125 | 74 | 169 | 0.0 | 0.0 | 0.00 | 0.00 | 0.00 | 85 | 1010.2 |
| 20260903120624 | 75 | 164 | 0.0 | 0.0 | 0.00 | 0.00 | 0.00 | 84 | 1010.4 |
| 20260903120119 | 75 | 175 | 0.0 | 0.0 | 0.00 | 0.00 | 0.00 | 85 | 1010.4 |
| 20260903115617 | 75 | 170 | 0.0 | 0.0 | 0.00 | 0.00 | 0.00 | 85 | 1010.6 |
| 20260903115112 | 74 | 154 | 0.9 | 1.7 | 0.00 | 0.00 | 0.00 | 87 | 1010.6 |
| 20260903114607 | 74 | 185 | 0.0 | 1.7 | 0.00 | 0.00 | 0.00 | 89 | 1010.8 |
| 20260903114103 | 73 | 173 | 0.0 | 0.0 | 0.00 | 0.00 | 0.00 | 90 | 1010.6 |
| 20260903113558 | 73 | 168 | 0.9 | 1.7 | 0.00 | 0.00 | 0.00 | 91 | 1010.8 |
| 20260903113054 | 73 | 161 | 0.0 | 0.0 | 0.00 | 0.00 | 0.00 | 91 | 1010.6 |
| 20260903112550 | 73 | 161 | 0.0 | 0.0 | 0.00 | 0.00 | 0.00 | 91 | 1010.7 |
| 20260903112050 | 73 | 170 | 0.0 | 0.0 | 0.00 | 0.00 | 0.00 | 91 | 1010.8 |
| 20260903111550 | 73 | 170 | 0.0 | 0.0 | 0.00 | 0.00 | 0.00 | 91 | 1010.6 |
| 20260903111046 | 73 | 170 | 0.0 | 0.0 | 0.00 | 0.00 | 0.00 | 91 | 1010.5 |
| 20260903110542 | 73 | 160 | 0.0 | 0.0 | 0.00 | 0.00 | 0.00 | 91 | 1010.7 |
| 20260903110041 | 73 | 163 | 0.0 | 0.0 | 0.00 | 0.00 | 0.00 | 91 | 1010.7 |
| 20260903105537 | 73 | 163 | 0.0 | 0.0 | 0.00 | 0.00 | 0.00 | 91 | 1010.7 |
| 20260903105031 | 73 | 157 | 0.0 | 0.0 | 0.00 | 0.00 | 0.00 | 91 | 1010.7 |
| 20260903104525 | 73 | 145 | 0.0 | 0.0 | 0.00 | 0.00 | 0.00 | 91 | 1010.8 |
| 20260903104021 | 73 | 166 | 0.0 | 0.0 | 0.00 | 0.00 | 0.00 | 91 | 1011.1 |
| 20260903103517 | 72 | 161 | 0.0 | 0.0 | 0.00 | 0.00 | 0.00 | 91 | 1010.8 |
| 20260903103013 | 72 | 161 | 0.0 | 0.0 | 0.00 | 0.00 | 0.00 | 91 | 1010.8 |
| 20260903102508 | 73 | 149 | 0.0 | 0.0 | 0.00 | 0.00 | 0.00 | 91 | 1010.7 |
| 20260903102007 | 73 | 156 | 0.0 | 0.0 | 0.00 | 0.00 | 0.00 | 91 | 1010.6 |
| 20260903101501 | 73 | 160 | 0.0 | 0.0 | 0.00 | 0.00 | 0.00 | 91 | 1010.5 |
| 20260903100957 | 73 | 155 | 0.0 | 0.0 | 0.00 | 0.00 | 0.00 | 91 | 1010.6 |
| 20260903100452 | 73 | 162 | 0.0 | 0.0 | 0.00 | 0.00 | 0.00 | 91 | 1010.8 |
| 20260903095949 | 73 | 150 | 0.0 | 0.0 | 0.00 | 0.00 | 0.00 | 91 | 1010.5 |
| 20260903095443 | 73 | 193 | 0.9 | 1.7 | 0.00 | 0.00 | 0.00 | 91 | 1010.6 |
| 20260903094939 | 72 | 158 | 0.0 | 0.0 | 0.00 | 0.00 | 0.00 | 91 | 1010.5 |
| 20260903094438 | 72 | 157 | 0.0 | 0.0 | 0.00 | 0.00 | 0.00 | 91 | 1010.7 |
| 20260903093935 | 72 | 164 | 0.0 | 0.0 | 0.00 | 0.00 | 0.00 | 91 | 1010.4 |
| 20260903093429 | 72 | 164 | 0.0 | 0.0 | 0.00 | 0.00 | 0.00 | 92 | 1010.4 |
| 20260903092925 | 72 | 164 | 0.0 | 0.0 | 0.00 | 0.00 | 0.00 | 91 | 1010.6 |
| 20260903092425 | 72 | 164 | 0.0 | 0.0 | 0.00 | 0.00 | 0.00 | 91 | 1010.6 |
| 20260903091924 | 72 | 164 | 0.0 | 0.0 | 0.00 | 0.00 | 0.00 | 91 | 1010.5 |
| 20260903091422 | 72 | 164 | 0.0 | 0.0 | 0.00 | 0.00 | 0.00 | 91 | 1010.6 |
| 20260903090918 | 72 | 156 | 0.0 | 0.0 | 0.00 | 0.00 | 0.00 | 91 | 1010.4 |
| 20260903090413 | 72 | 156 | 0.0 | 0.0 | 0.00 | 0.00 | 0.00 | 91 | 1010.3 |
| 20260903085912 | 72 | 156 | 0.0 | 0.0 | 0.00 | 0.00 | 0.00 | 91 | 1010.2 |
| 20260903085410 | 72 | 156 | 0.0 | 0.0 | 0.00 | 0.00 | 0.00 | 90 | 1010.2 |
| 20260903084910 | 72 | 156 | 0.0 | 0.0 | 0.00 | 0.00 | 0.00 | 90 | 1010.3 |
| 20260903084409 | 72 | 156 | 0.0 | 0.0 | 0.00 | 0.00 | 0.00 | 90 | 1010.4 |
| 20260903083904 | 72 | 156 | 0.0 | 0.0 | 0.00 | 0.00 | 0.00 | 90 | 1010.4 |
| 20260903083400 | 72 | 156 | 0.0 | 0.0 | 0.00 | 0.00 | 0.00 | 90 | 1010.5 |
| 20260903082854 | 73 | 156 | 0.0 | 0.0 | 0.00 | 0.00 | 0.00 | 90 | 1010.6 |
| 20260903082349 | 73 | 156 | 0.0 | 0.0 | 0.00 | 0.00 | 0.00 | 89 | 1010.6 |
| 20260903081844 | 73 | 156 | 0.0 | 0.0 | 0.00 | 0.00 | 0.00 | 89 | 1010.8 |
| 20260903081339 | 73 | 156 | 0.0 | 0.0 | 0.00 | 0.00 | 0.00 | 88 | 1010.5 |
| 20260903080836 | 73 | 152 | 0.0 | 0.0 | 0.00 | 0.00 | 0.00 | 88 | 1010.4 |
| 20260903080333 | 73 | 157 | 0.0 | 0.0 | 0.00 | 0.00 | 0.00 | 88 | 1010.6 |
| 20260903075832 | 73 | 157 | 0.0 | 0.0 | 0.00 | 0.00 | 0.00 | 88 | 1010.4 |
| 20260903075327 | 73 | 157 | 0.0 | 0.0 | 0.00 | 0.00 | 0.00 | 87 | 1010.7 |
| 20260903074827 | 74 | 158 | 0.0 | 0.0 | 0.00 | 0.00 | 0.00 | 87 | 1010.7 |
| 20260903074327 | 74 | 158 | 0.0 | 0.0 | 0.00 | 0.00 | 0.00 | 87 | 1010.7 |